Weather observations for the past three days for
Marquette Sawyer Regional Airport
Imperial (Metric)
Date Time (edt) Wind (mph) Vis. (mi.) Weather Sky Cond. Temperature (ºF) Relative Humidity Wind Chill (°F) Heat Index (°F) Pressure Precipitation (in)
Air Dwpt 6 hour altimeter (in) sea level (mb) 1 hr 3 hr 6 hr
Max. Min.
09 14:45 NW 18 G 28 10.00 Overcast BKN075 OVC085 51.8 21.2 30% 29.59 0.0
09 13:45 NW 16 G 26 10.00 Overcast OVC080 53.6 21.2 28% 29.55 0.0
09 12:45 NW 17 G 29 10.00 Mostly Cloudy BKN110 51.8 19.4 28% 29.53 0.0
09 11:47 NW 23 10.00 Overcast and Breezy OVC100 50 19.4 30% 44 29.51 0.0
09 10:47 NW 16 G 31 10.00 Mostly Cloudy BKN120 51.8 19.4 28% 29.49 0.0
09 09:47 NW 16 10.00 Mostly Cloudy BKN110 50 23 35% 45 29.48 0.0
09 08:47 NW 16 10.00 Fair CLR 50 26.6 40% 45 29.46 0.0
09 07:50 NW 9 10.00 Fair CLR 48.2 30.2 50% 45 29.45 0.0
09 06:50 NW 14 10.00 Mostly Cloudy BKN090 BKN110 44.6 30.2 57% 39 29.44 0.0
09 05:58 W 8 10.00 Overcast OVC095 39.2 32 75% 34 29.44 0.0
09 05:38 N 7 10.00 Overcast FEW075 OVC095 39.2 32 75% 35 29.43 0.0
09 05:18 Vrbl 2 10.00 Mostly Cloudy BKN075 BKN085 37.4 32 81% 29.44 0.0
09 04:58 NW 3 10.00 Overcast SCT075 OVC085 37.4 32 81% 29.44 0.0
09 04:38 S 5 10.00 Overcast BKN095 OVC120 39.2 32 75% 36 29.45 0.0
09 04:18 S 5 10.00 Partly Cloudy SCT120 37.4 32 81% 34 29.45 0.0
09 03:58 S 3 10.00 Partly Cloudy FEW100 SCT120 37.4 32 81% 29.45 0.0
09 03:38 SW 3 10.00 Mostly Cloudy BKN110 37.4 32 81% 29.46 0.0
09 03:18 SW 5 10.00 Mostly Cloudy BKN110 37.4 30.2 75% 34 29.47 0.0
09 02:58 SW 3 10.00 Mostly Cloudy BKN120 35.6 28.4 75% 29.47 0.0
09 02:38 S 2 10.00 Mostly Cloudy BKN120 37.4 30.2 75% 29.48 0.0
09 02:18 S 3 10.00 Mostly Cloudy BKN120 33.8 28.4 81% 29.49 0.0
09 01:58 S 1 10.00 Mostly Cloudy BKN120 37.4 30.2 75% 29.5 0.0
09 01:38 S 3 10.00 A Few Clouds FEW120 42.8 32 66% 29.51 0.0
09 01:18 Vrbl 3 10.00 Fair CLR 41 30.2 66% 29.52 0.0
09 00:58 Calm 10.00 Fair CLR 41 30.2 66% 29.53 0.0
09 00:38 Calm 10.00 A Few Clouds FEW095 44.6 32 61% 29.53 0.0
09 00:18 SE 5 10.00 Partly Cloudy SCT095 44.6 30.2 57% 43 29.54 0.0
08 23:58 SE 7 10.00 Fair CLR 44.6 30.2 57% 41 29.55 0.0
08 23:38 SE 3 10.00 Fair CLR 46.4 28.4 50% 29.56 0.0
08 23:18 SE 6 10.00 Fair CLR 46.4 28.4 50% 44 29.57 0.0
08 22:58 E 7 10.00 Mostly Cloudy BKN120 48.2 28.4 46% 46 29.58 0.0
08 22:38 E 8 10.00 Mostly Cloudy BKN120 48.2 24.8 40% 45 29.58 0.0
08 22:18 E 8 10.00 Mostly Cloudy SCT090 BKN120 48.2 23 37% 45 29.58 0.0
08 21:45 E 10 10.00 Overcast OVC110 50 21.2 32% 46 29.59 0.0
08 20:45 E 10 10.00 Overcast OVC090 51.8 23 32% 29.6 0.0
08 19:45 E 9 10.00 Overcast OVC090 53.6 23 30% 29.61 0.0
08 18:46 NE 13 10.00 Overcast OVC090 53.6 24.8 33% 29.61 0.0
08 17:50 NE 12 10.00 Overcast OVC100 53.6 23 30% 29.62 0.0
08 16:45 NE 14 10.00 Overcast OVC090 55.4 23 28% 29.62 0.0
08 15:45 W 9 G 21 10.00 Mostly Cloudy BKN100 59 19.4 21% 29.64 0.0
08 14:45 NW 10 10.00 Partly Cloudy SCT065 57.2 21.2 25% 29.66 0.0
08 13:45 W 8 G 22 10.00 Mostly Cloudy BKN070 BKN080 55.4 24.8 31% 29.68 0.0
08 12:45 NW 10 10.00 Partly Cloudy SCT050 51.8 24.8 35% 29.7 0.0
08 11:50 W 7 10.00 A Few Clouds FEW050 51.8 28.4 41% 29.72 0.0
08 10:47 SW 7 10.00 Fair CLR 46.4 33.8 62% 43 29.74 0.0
08 09:47 W 5 10.00 Fair CLR 41 39.2 93% 38 29.75 0.0
08 08:47 SW 3 10.00 Fair CLR 33.8 33.8 100% 29.76 0.0
08 07:47 Calm 10.00 Fair CLR 28.4 28.4 100% 29.75 0.0
08 06:47 Calm 10.00 Shallow Fog SKC 24.8 24.8 100% 29.75 0.0
08 05:58 S 2 8.00 Mostly Cloudy BKN075 28.4 26.6 93% 29.76 0.0
08 05:38 SW 3 10.00 Overcast OVC075 28.4 28.4 100% 29.76 0.0
08 05:18 SW 3 0.75 Fog/Mist OVC075 28.4 28.4 100% 29.77 0.0
08 04:58 SW 2 0.75 Fog/Mist OVC075 26.6 26.6 100% 29.77 0.0
08 04:38 W 1 0.25 Freezing Fog OVC075 26.6 26.6 100% 29.77 0.0
08 04:18 S 2 0.25 Freezing Fog VV002 26.6 26.6 100% 29.77 0.0
08 03:58 SW 2 0.15 Freezing Fog VV000 26.6 26.6 100% 29.77 0.0
08 03:38 W 2 0.25 Freezing Fog VV002 26.6 26.6 100% 29.77 0.0
08 03:18 W 1 0.25 Freezing Fog VV002 28.4 28.4 100% 29.78 0.0
08 02:58 Calm 0.25 Freezing Fog VV002 28.4 28.4 100% 29.78 0.0
08 02:38 SW 3 0.25 Freezing Fog VV002 28.4 28.4 100% 29.79 0.0
08 02:18 SW 3 0.25 Freezing Fog VV002 30.2 30.2 100% 29.79 0.0
08 01:58 SW 3 0.25 Freezing Fog VV002 30.2 30.2 100% 29.8 0.0
08 01:38 Calm 0.15 Freezing Fog VV000 30.2 30.2 100% 29.8 0.0
08 01:18 SW 3 0.25 Freezing Fog BKN080 30.2 30.2 100% 29.81 0.0
08 00:58 SW 3 0.25 Freezing Fog OVC080 30.2 30.2 100% 29.81 0.0
08 00:38 S 6 0.25 Freezing Fog BKN001 OVC090 32 32 100% 27 29.81 0.0
08 00:18 SW 3 4.00 Fog/Mist FEW090 32 32 100% 29.81 0.0
07 23:58 S 3 8.00 Mostly Cloudy SCT001 BKN090 32 32 100% 29.81 0.0
07 23:38 SE 5 10.00 Partly Cloudy SCT001 32 32 100% 28 29.82 0.0
07 23:18 SE 5 10.00 Partly Cloudy SCT100 33.8 32 93% 30 29.83 0.0
07 22:58 S 5 10.00 Mostly Cloudy BKN100 33.8 32 93% 30 29.83 0.0
07 22:38 E 3 4.00 Light Snow Fog/Mist FEW008 33.8 32 93% 29.83 0.0
07 22:18 NW 10 4.00 Light Snow Fog/Mist BKN008 BKN012 33.8 32 93% 26 29.86 0.0
07 21:46 NW 13 10.00 Mostly Cloudy SCT016 BKN027 BKN050 39.2 30.2 70% 32 29.84 0.0
07 20:46 NE 6 10.00 Overcast OVC070 42.8 24.8 49% 40 29.78 0.0
07 19:46 NE 10 10.00 Overcast OVC070 42.8 26.6 53% 38 29.78 0.0
07 18:46 NE 10 10.00 Overcast OVC070 42.8 30.2 61% 38 29.78 0.0
07 17:46 NE 12 G 20 10.00 Overcast BKN070 OVC090 42.8 30.2 61% 37 29.78 0.0
07 16:46 SW 8 10.00 Mostly Cloudy BKN080 44.6 26.6 49% 41 29.77 0.0
07 15:46 W 9 10.00 Light Rain SCT043 SCT060 BKN070 42.8 32 66% 38 29.79 0.0
07 14:46 W 3 10.00 Light Rain SCT043 BKN050 OVC080 39.2 32 75% 29.81 0.0
07 13:46 W 16 G 25 7.00 Light Rain SCT035 BKN043 OVC080 39.2 30.2 70% 31 29.82 0.0
07 12:46 W 14 8.00 Light Rain SCT041 BKN049 OVC065 39.2 30.2 70% 32 29.84 0.0
07 11:47 NW 12 10.00 Light Rain BKN034 OVC044 39.2 28.4 65% 33 29.84 0.0
07 10:47 W 12 10.00 Overcast SCT031 BKN044 OVC080 39.2 26.6 61% 33 29.84 0.0
07 09:47 W 9 10.00 Overcast OVC060 39.2 26.6 61% 34 29.84 0.0
07 08:47 W 9 10.00 Overcast OVC060 37.4 28.4 70% 31 29.85 0.0
07 07:47 W 5 10.00 Overcast OVC060 33.8 26.6 75% 30 29.84 0.0
07 06:50 SW 3 10.00 Overcast OVC060 32 26.6 80% 29.84 0.0
07 05:58 SW 5 10.00 Overcast OVC060 32 26.6 80% 28 29.83 0.0
07 05:38 S 3 10.00 Overcast OVC060 32 26.6 80% 29.84 0.0
07 05:18 S 3 10.00 Overcast OVC060 32 28.4 87% 29.84 0.0
07 04:58 S 3 10.00 Overcast OVC060 33.8 28.4 81% 29.85 0.0
07 04:38 S 3 10.00 Overcast OVC060 33.8 28.4 81% 29.85 0.0
07 04:18 S 3 10.00 Overcast OVC060 33.8 28.4 81% 29.85 0.0
07 03:58 S 5 10.00 Overcast FEW039 OVC060 33.8 28.4 81% 30 29.85 0.0
07 03:38 S 3 10.00 Overcast BKN039 OVC060 33.8 26.6 75% 29.86 0.0
07 03:18 SW 3 10.00 Overcast SCT039 SCT048 OVC060 33.8 26.6 75% 29.86 0.0
07 02:58 SW 3 10.00 Overcast BKN039 BKN048 OVC060 33.8 26.6 75% 29.87 0.0
07 02:38 SW 5 10.00 Overcast SCT041 OVC060 33.8 24.8 70% 30 29.88 0.0
07 02:18 SW 3 10.00 Overcast OVC060 32 26.6 80% 29.88 0.0
07 01:58 SW 3 10.00 Overcast OVC060 32 26.6 80% 29.88 0.0
07 01:38 SW 6 10.00 Overcast OVC060 32 26.6 80% 27 29.89 0.0
07 01:18 SW 5 10.00 Overcast OVC060 32 24.8 75% 28 29.89 0.0
07 00:58 S 5 10.00 Overcast OVC060 33.8 24.8 70% 30 29.89 0.0
07 00:38 S 5 10.00 Overcast OVC060 33.8 24.8 70% 30 29.89 0.0
07 00:18 S 5 10.00 Overcast OVC060 33.8 24.8 70% 30 29.89 0.0
06 23:38 SW 3 10.00 Overcast OVC060 33.8 24.8 70% 29.9 0.0
06 23:18 S 3 10.00 Overcast OVC060 33.8 26.6 75% 29.9 0.0
06 22:58 SE 3 10.00 Mostly Cloudy BKN060 33.8 24.8 70% 29.9 0.0
06 22:38 SE 2 10.00 Partly Cloudy SCT060 35.6 24.8 65% 29.9 0.0
06 22:18 SE 1 10.00 Overcast OVC060 35.6 24.8 65% 29.9 0.0
06 21:45 E 3 10.00 Overcast OVC060 35.6 24.8 65% 29.9 0.0
06 20:45 E 7 10.00 Overcast OVC050 35.6 24.8 65% 31 29.89 0.0
06 19:45 E 7 10.00 Overcast OVC050 37.4 24.8 60% 33 29.88 0.0
06 18:45 W 9 10.00 Overcast OVC050 39.2 21.2 48% 34 29.88 0.0
06 17:45 W 14 10.00 Overcast OVC050 41 21.2 45% 34 29.87 0.0
06 16:45 NW 13 10.00 Overcast OVC050 39.2 23 52% 32 29.88 0.0
06 15:45 W 7 10.00 Overcast SCT041 OVC050 39.2 23 52% 35 29.87 0.0
Date Time (edt) Wind (mph) Vis. (mi.) Weather Sky Cond. Air Dwpt Max. Min. Relative Humidity Wind Chill (°F) Heat Index (°F) altimeter (in) sea level (mb) 1 hr 3 hr 6 hr
6 hour
Temperature (ºF) Pressure Precipitation (in)